Location: New Frontier Mobile Home Park
(32.8448°N, 116.9675°W)
Time: 23:16:39
(UTC+00:00)

COSMOS 2455 - Pass Details

Date: 14 July 2020
Orbit: 898 x 911 km, 67.1° (Epoch: 05 August)

Event Time Altitude Azimuth Distance (km) Brightness Sun altitude
Rises 06:52:40 0° 332° (NNW) 3,545 7.0 -33.6°
Reaches altitude 10° 06:55:11 10° 331° (NNW) 2,600 6.0 -33.8°
Enters shadow 06:59:34 49° 317° (NW) 1,157 3.6 -34.0°
